Lexington, NE

3:10 AM CDT on May 23, 2017 (GMT -0500)
Kelly

Weather History for KLXN - January, 2013

Change the Weather History Date:

Tuesday, January 8, 2013

  Actual Average Record
Temperature  
Mean Temperature 28 °F -  
Max Temperature 45 °F 37 °F 69 °F (2002)
Min Temperature 12 °F 12 °F 0 °F (2005)
Degree Days  
Heating Degree Days 36    
Moisture  
Dew Point 22 °F    
Average Humidity 81    
Maximum Humidity 91    
Minimum Humidity 59    
Precipitation  
Precipitation 0.00 in - - ()
Sea Level Pressure  
Sea Level Pressure 29.91 in    
Wind  
Wind Speed 5 mph (WNW)    
Max Wind Speed 15 mph    
Max Gust Speed -    
Visibility 10 miles    
Events      
Averages and records for this station are not official NWS values.
T = Trace of Precipitation, MM = Missing Value Source: NWS Daily Summary

Daily Weather History Graph

Daily Weather History Graph

Search for Another Location

Airport or City:

Trip Planner

Search our weather history database for the weather conditions in past years. The results will help you decide how hot, cold, wet, or windy it might be!

Date:

Astronomy

Jan. 08, 2013 Rise Set
Actual Time 8:03 AM CST 5:29 PM CST
Civil Twilight 7:32 AM CST 5:59 PM CST
Nautical Twilight 6:58 AM CST 6:33 PM CST
Astronomical Twilight 6:25 AM CST 7:06 PM CST
Moon 4:38 AM CST (1/8) 2:32 PM CST (1/8)
Length of Visible Light 10h 26m
Length of Day
9h 25m
Waning Crescent, 13% of the Moon is Illuminated
Jan 8
Waning Crescent
Jan 11
New
Jan 18
First Quarter
Jan 26
Full
Feb 3
Last Quarter

Hourly Weather History & Observations

Time (CST) Temp. Windchill Dew Point Humidity Pressure Visibility Wind Dir Wind Speed Gust Speed Precip Events Conditions
12:15 AM 18.1 °F 12.9 °F 15.3 °F 88% 29.87 in 10.0 mi NNW 3.5 mph - N/A   Clear
12:35 AM 17.8 °F 12.5 °F 15.1 °F 89% 29.86 in 10.0 mi West 3.5 mph - N/A   Clear
12:55 AM 17.1 °F 10.0 °F 14.0 °F 88% 29.86 in 10.0 mi West 4.6 mph - N/A   Clear
1:15 AM 16.7 °F 9.6 °F 13.8 °F 88% 29.85 in 10.0 mi West 4.6 mph - N/A   Clear
1:35 AM 17.1 °F 8.7 °F 14.5 °F 90% 29.84 in 10.0 mi West 5.8 mph - N/A   Clear
1:55 AM 15.8 °F 10.2 °F 13.1 °F 89% 29.85 in 10.0 mi West 3.5 mph - N/A   Clear
2:15 AM 16.5 °F 11.0 °F 14.0 °F 90% 29.84 in 10.0 mi South 3.5 mph - N/A   Clear
2:35 AM 16.3 °F - 14.2 °F 91% 29.83 in 10.0 mi Calm Calm - N/A   Clear
2:55 AM 16.5 °F 11.0 °F 13.8 °F 89% 29.84 in 10.0 mi SSE 3.5 mph - N/A   Clear
3:15 AM 16.5 °F - 14.0 °F 90% 29.83 in 10.0 mi Calm Calm - N/A   Clear
3:35 AM 12.6 °F 6.5 °F 9.9 °F 89% 29.83 in 10.0 mi NW 3.5 mph - N/A   Clear
3:55 AM 13.1 °F 2.8 °F 10.6 °F 90% 29.82 in 10.0 mi NNW 6.9 mph - N/A   Clear
4:15 AM 12.0 °F 2.7 °F 9.3 °F 89% 29.82 in 10.0 mi NNW 5.8 mph - N/A   Clear
4:35 AM 12.4 °F - 9.5 °F 88% 29.81 in 10.0 mi Calm Calm - N/A   Clear
4:55 AM 12.9 °F - 10.2 °F 89% 29.80 in 10.0 mi Calm Calm - N/A   Clear
5:15 AM 13.1 °F 7.1 °F 10.4 °F 89% 29.78 in 10.0 mi WSW 3.5 mph - N/A   Clear
5:35 AM 12.7 °F 5.0 °F 10.0 °F 89% 29.78 in 10.0 mi South 4.6 mph - N/A   Clear
5:55 AM 12.0 °F - 9.1 °F 88% 29.79 in 10.0 mi Calm Calm - N/A   Clear
6:15 AM 12.7 °F 2.4 °F 10.0 °F 89% 29.80 in 10.0 mi WNW 6.9 mph - N/A   Clear
6:35 AM 14.0 °F 2.0 °F 11.7 °F 90% 29.81 in 10.0 mi NW 9.2 mph - N/A   Clear
6:55 AM 16.0 °F 6.3 °F 13.3 °F 89% 29.81 in 10.0 mi WNW 6.9 mph - N/A   Clear
7:35 AM 14.4 °F 5.5 °F 11.5 °F 88% 29.81 in 10.0 mi WNW 5.8 mph - N/A   Clear
8:15 AM 15.8 °F 7.2 °F 13.1 °F 89% 29.82 in 10.0 mi WNW 5.8 mph - N/A   Clear
8:35 AM 17.6 °F 10.7 °F 14.7 °F 88% 29.82 in 10.0 mi West 4.6 mph - N/A   Clear
8:55 AM 19.4 °F 14.3 °F 16.5 °F 89% 29.82 in 10.0 mi West 3.5 mph - N/A   Clear
9:15 AM 20.3 °F - 17.2 °F 88% 29.83 in 10.0 mi Calm Calm - N/A   Clear
9:35 AM 20.8 °F - 17.4 °F 87% 29.83 in 10.0 mi Calm Calm - N/A   Clear
9:55 AM 21.9 °F 17.2 °F 18.5 °F 87% 29.84 in 10.0 mi WNW 3.5 mph - N/A   Clear
10:15 AM 23.7 °F 16.6 °F 20.3 °F 87% 29.85 in 10.0 mi WNW 5.8 mph - N/A   Clear
10:35 AM 25.9 °F 19.2 °F 21.9 °F 85% 29.85 in 10.0 mi WNW 5.8 mph - N/A   Clear
10:55 AM 28.6 °F 22.4 °F 23.5 °F 81% 29.85 in 10.0 mi WNW 5.8 mph - N/A   Clear
11:15 AM 31.1 °F 22.4 °F 24.8 °F 77% 29.85 in 10.0 mi WNW 10.4 mph - N/A   Clear
11:35 AM 32.2 °F 25.0 °F 26.1 °F 78% 29.85 in 10.0 mi WNW 8.1 mph - N/A   Clear
11:55 AM 34.9 °F 25.3 °F 26.8 °F 72% 29.85 in 10.0 mi WNW 15.0 mph - N/A   Clear
12:15 PM 35.4 °F 26.4 °F 27.5 °F 73% 29.85 in 10.0 mi WNW 13.8 mph - N/A   Clear
12:35 PM 37.4 °F 30.3 °F 29.1 °F 72% 29.85 in 10.0 mi WNW 10.4 mph - N/A   Clear
12:55 PM 39.7 °F 32.7 °F 30.4 °F 69% 29.85 in 10.0 mi WNW 11.5 mph - N/A   Clear
1:15 PM 41.2 °F 33.7 °F 30.4 °F 65% 29.85 in 10.0 mi WNW 13.8 mph - N/A   Clear
1:55 PM 42.8 °F 35.8 °F 30.9 °F 63% 29.86 in 10.0 mi WNW 13.8 mph - N/A   Clear
2:15 PM 42.1 °F 35.7 °F 30.7 °F 64% 29.87 in 10.0 mi WNW 11.5 mph - N/A   Clear
2:35 PM 42.6 °F 35.9 °F 30.9 °F 63% 29.89 in 10.0 mi WNW 12.7 mph - N/A   Clear
2:55 PM 43.3 °F 37.7 °F 31.1 °F 62% 29.90 in 10.0 mi WNW 10.4 mph - N/A   Clear
3:15 PM 45.0 °F 39.3 °F 31.5 °F 59% 29.91 in 10.0 mi WNW 11.5 mph - N/A   Clear
3:35 PM 44.8 °F 38.7 °F 32.0 °F 61% 29.92 in 10.0 mi WNW 12.7 mph - N/A   Clear
3:55 PM 45.3 °F 40.1 °F 32.0 °F 60% 29.94 in 10.0 mi WNW 10.4 mph - N/A   Clear
4:15 PM 45.3 °F 41.1 °F 32.0 °F 60% 29.95 in 10.0 mi WNW 8.1 mph - N/A   Clear
4:35 PM 44.6 °F 39.7 °F 32.0 °F 61% 29.96 in 10.0 mi WNW 9.2 mph - N/A   Clear
4:55 PM 42.8 °F 37.0 °F 31.6 °F 65% 29.97 in 10.0 mi WNW 10.4 mph - N/A   Clear
5:15 PM 40.5 °F 35.1 °F 31.1 °F 69% 29.98 in 10.0 mi WNW 8.1 mph - N/A   Clear
5:35 PM 37.8 °F 31.3 °F 30.4 °F 75% 29.99 in 10.0 mi WNW 9.2 mph - N/A   Clear
5:55 PM 37.0 °F 31.6 °F 29.8 °F 75% 30.00 in 10.0 mi West 6.9 mph - N/A   Clear
6:15 PM 36.0 °F 32.1 °F 29.7 °F 78% 30.01 in 10.0 mi WSW 4.6 mph - N/A   Clear
6:35 PM 34.2 °F 29.0 °F 28.6 °F 80% 30.02 in 10.0 mi West 5.8 mph - N/A   Clear
6:55 PM 33.1 °F 27.7 °F 28.4 °F 83% 30.04 in 10.0 mi West 5.8 mph - N/A   Clear
7:15 PM 32.0 °F 27.5 °F 27.3 °F 83% 30.05 in 10.0 mi WNW 4.6 mph - N/A   Clear
7:35 PM 32.2 °F 27.7 °F 27.3 °F 82% 30.06 in 10.0 mi NW 4.6 mph - N/A   Clear
7:55 PM 31.5 °F 25.8 °F 27.0 °F 83% 30.06 in 10.0 mi NW 5.8 mph - N/A   Clear
8:15 PM 28.9 °F 21.9 °F 24.8 °F 84% 30.07 in 10.0 mi WNW 6.9 mph - N/A   Clear
8:35 PM 28.6 °F 24.8 °F 25.5 °F 88% 30.08 in 10.0 mi NW 3.5 mph - N/A   Clear
8:55 PM 28.6 °F 23.5 °F 25.2 °F 87% 30.10 in 10.0 mi WNW 4.6 mph - N/A   Clear
9:15 PM 28.8 °F 23.7 °F 25.0 °F 86% 30.11 in 10.0 mi NW 4.6 mph - N/A   Clear
9:35 PM 28.6 °F 22.4 °F 24.4 °F 84% 30.12 in 10.0 mi NNW 5.8 mph - N/A   Clear
9:55 PM 28.4 °F 22.2 °F 25.3 °F 88% 30.12 in 10.0 mi NNW 5.8 mph - N/A   Clear
10:15 PM 27.5 °F 21.1 °F 23.9 °F 86% 30.13 in 10.0 mi NW 5.8 mph - N/A   Clear
10:35 PM 27.5 °F 22.2 °F 24.4 °F 88% 30.15 in 10.0 mi WNW 4.6 mph - N/A   Clear
11:15 PM 27.3 °F 19.1 °F 23.9 °F 87% 30.17 in 10.0 mi WNW 8.1 mph - N/A   Clear
11:55 PM 25.7 °F 17.1 °F 22.8 °F 89% 30.19 in 10.0 mi NW 8.1 mph - N/A   Clear